串田-村松彗星

147P/Kushida-Muramatsu (2008)

English version
Home page
Updated on July 21, 2011

---------------------------------------------------------------------

・ プロフィール

・ 軌道要素

Epoch 2008 Sept. 11.0 TT = JDT 2454720.5
T 2008 Sept. 22.88709 TT                                MPC
q   2.7564397            (2000.0)            P               Q
n   0.13270550     Peri.  346.84700     +0.16294549     -0.98577293
a   3.8066543      Node    93.76383     +0.90891951     +0.13372026
e   0.2758891      Incl.    2.36849     +0.38381518     +0.10183626
P   7.43
From 51 observations 2001 Dec. 14-2009 Feb. 28, mean residual 0".6.

・ 光度変化

        H = 15.5  G = 0.15

---------------------------------------------------------------------

軌道要素はM.P.E.C. 2011-M31に掲載されたものです。
光度グラフはComet for Windowsで作成したものです。

---------------------------------------------------------------------

Copyright(C) Seiichi Yoshida (comet@aerith.net). All rights reserved.